(190273) = 2822 P-L = 2001 SC29

Discovered at Palomar on 1960-09-24 by C. J. van Houten, I. van Houten-Groeneveld, and T. Gehrels.

Orbit

Orbit type: Main Belt

Note: WebGL enabled browser required.

epoch2024-03-31.0
epoch JD2460400.5
perihelion date2022-08-21.75082
perihelion JD2459813.25082
argument of perihelion (°)54.70641
ascending node (°)13.31664
inclination (°)6.12462
eccentricity0.1777417
perihelion distance (AU)1.8652098
Tisserand w.r.t. Jupiter3.6
ΔV w.r.t. Earth (km/sec)8.6
semimajor axis (AU)2.2683989
mean anomaly (°)169.41315
mean daily motion (°/day)0.28848600
aphelion distance (AU)2.672
period (years)3.42
P-vector [x]0.37530656
P-vector [y]0.81201430
P-vector [z]0.44696506
Q-vector [x]-0.92657492
Q-vector [y]0.31588819
Q-vector [z]0.20414106
absolute magnitude17.17
phase slope0.15
uncertainty0
referenceMPEC 2024-C40
observations used431
oppositions14
arc length (days)22847
first opposition used1960
last opposition used2023
residual rms (arc-secs)0.80
perturbers coarse indicatorM-v
perturbers precise indicator003Ek
first observation date used1960-09-24.0
last observation date used2023-04-14.0
computer nameMPCLINUX
JD of orbit computation2456406.178813
perihelion JD uncertainty (days)8.0786E-05
argument of perihelion uncertainty (°)5.2230E-05
ascending node uncertainty (°)4.3060E-05
inclination uncertainty (°)7.8503E-06
eccentricity uncertainty 5.8305E-08
perihelion distance uncertainty (AU)1.3102E-07
Minimum Orbit Intersection Distances (in AU)
for orbit epoch: 2460200.5, reference: E2024-C40
Mercury1.55707
Venus1.14938
Earth0.8853
Mars0.34477
Jupiter2.64332
Saturn7.12978
Uranus16.0651
Neptune27.7637

Observations

453 total observations over interval: 1960 09 24.43750 – 2023 04 14.204697
These data are available for download (format description).

Date (UT) J2000 RA J2000 Dec Magn Location Ref
1960 09 24.43750 00 42 14.44 +02 48 31.8 19.4   675 – Palomar Mountain MPS 285577
1960 09 24.43750 00 42 14.36 +02 48 31.3 19.7   675 – Palomar Mountain MPS 16056
1960 09 24.46180 00 42 12.82 +02 48 28.4 19.4   675 – Palomar Mountain MPS 285577
1960 09 26.35694 00 40 16.78 +02 44 59.1 18.2   675 – Palomar Mountain MPS 285577
1960 09 26.37986 00 40 15.33 +02 44 55.8 19.6   675 – Palomar Mountain MPS 285577
1960 09 26.41250 00 40 13.21 +02 44 52.6 19.7   675 – Palomar Mountain MPS 285577
1960 09 26.42291 00 40 12.50 +02 44 51.4 19.6   675 – Palomar Mountain MPS 285577
1960 09 28.37778 00 38 09.91 +02 41 08.6 20.3   675 – Palomar Mountain MPS 285577
1960 09 28.39722 00 38 08.64 +02 41 06.3 20.2   675 – Palomar Mountain MPS 285577
1960 10 17.29306 00 18 30.26 +02 09 56.8 19.8   675 – Palomar Mountain MPS 285577
1960 10 17.31528 00 18 29.00 +02 09 55.4 19.8   675 – Palomar Mountain MPS 285577
1960 10 22.18959 00 14 15.81 +02 06 44.2 19.6   675 – Palomar Mountain MPS 285577
1960 10 22.20070 00 14 15.19 +02 06 44.0 20.2   675 – Palomar Mountain MPS 285577
1960 10 22.24584 00 14 13.03 +02 06 43.9 20.0   675 – Palomar Mountain MPS 285577
1960 10 22.26806 00 14 11.84 +02 06 43.4 20.8   675 – Palomar Mountain MPS 285577
1960 10 24.33403 00 12 36.14 +02 06 23.1 19.3 V 675 – Palomar Mountain MPS 285577
1960 10 26.30417 00 11 12.49 +02 06 39.7 19.8   675 – Palomar Mountain MPS 285577
1960 10 26.32570 00 11 11.52 +02 06 39.7 19.7   675 – Palomar Mountain MPS 285577
2001 09 16.38151 01 01 37.74 +04 42 05.0 19.6   704 – Lincoln Laboratory ETS, New Mexico MPS 36512
2001 09 16.39585 01 01 37.02 +04 42 05.2 19.8   704 – Lincoln Laboratory ETS, New Mexico MPS 36512
2001 09 16.41020 01 01 36.44 +04 42 02.1 20.1   704 – Lincoln Laboratory ETS, New Mexico MPS 36512
2001 09 16.42472 01 01 35.59 +04 42 02.0 20.3   704 – Lincoln Laboratory ETS, New Mexico MPS 36512
2001 09 19.32278 00 59 16.58 +04 39 52.6 18.5   704 – Lincoln Laboratory ETS, New Mexico MPS 36512
2001 09 19.33691 00 59 15.83 +04 39 51.9 18.8   704 – Lincoln Laboratory ETS, New Mexico MPS 36512
2001 09 19.36518 00 59 14.33 +04 39 50.8 19.1   704 – Lincoln Laboratory ETS, New Mexico MPS 36512
2001 09 19.37932 00 59 13.58 +04 39 49.5 19.0   704 – Lincoln Laboratory ETS, New Mexico MPS 36512
2001 09 21.34443 00 57 31.50 +04 37 51.8 19.4   704 – Lincoln Laboratory ETS, New Mexico MPS 36512
2001 09 21.36704 00 57 30.24 +04 37 50.1 19.2   704 – Lincoln Laboratory ETS, New Mexico MPS 36512
2001 09 21.38124 00 57 29.45 +04 37 48.1 19.5   704 – Lincoln Laboratory ETS, New Mexico MPS 36512
2001 09 21.39545 00 57 28.61 +04 37 48.0 19.2   704 – Lincoln Laboratory ETS, New Mexico MPS 36512
2001 09 21.41567 00 57 27.55 +04 37 48.9 18.9 V 291 – LPL/Spacewatch II MPS 36512
2001 09 21.43665 00 57 26.35 +04 37 46.2 19.2 V 291 – LPL/Spacewatch II MPS 36512
2001 09 21.45686 00 57 25.22 +04 37 44.6 19.3 V 291 – LPL/Spacewatch II MPS 36512
2001 09 25.22089 00 53 55.13 +04 33 01.1 20.0 R 699 – Lowell Observatory-LONEOS MPS 50418
2001 09 25.24278 00 53 53.76 +04 33 00.5   699 – Lowell Observatory-LONEOS MPS 50418
2001 09 25.26464 00 53 52.45 +04 32 58.3   699 – Lowell Observatory-LONEOS MPS 50418
2001 09 25.28649 00 53 51.18 +04 32 57.4   699 – Lowell Observatory-LONEOS MPS 50418
2001 09 26.33195 00 52 49.52 +04 31 26.1 19.1   704 – Lincoln Laboratory ETS, New Mexico MPS 50418
2001 09 26.34699 00 52 48.47 +04 31 24.7 19.4   704 – Lincoln Laboratory ETS, New Mexico MPS 50418
2001 09 26.36157 00 52 47.66 +04 31 24.3 19.8   704 – Lincoln Laboratory ETS, New Mexico MPS 50418
2001 09 26.37615 00 52 46.74 +04 31 23.5 19.4   704 – Lincoln Laboratory ETS, New Mexico MPS 50418
2001 09 26.39074 00 52 45.81 +04 31 22.3 19.4   704 – Lincoln Laboratory ETS, New Mexico MPS 50418
2001 10 06.40584 00 42 15.34 +04 14 40.9 18.7   644 – Palomar Mountain/NEAT MPS 38114
2001 10 06.41651 00 42 14.59 +04 14 39.6 18.6   644 – Palomar Mountain/NEAT MPS 38114
2001 10 06.42708 00 42 13.89 +04 14 38.3 18.9   644 – Palomar Mountain/NEAT MPS 38114
2001 10 07.36030 00 41 13.57 +04 13 00.2 19.0   644 – Palomar Mountain/NEAT MPS 38114
2001 10 07.38165 00 41 12.14 +04 12 57.8 19.0   644 – Palomar Mountain/NEAT MPS 38114
2001 10 07.40294 00 41 10.71 +04 12 55.7 19.1   644 – Palomar Mountain/NEAT MPS 38114
2001 10 08.37531 00 40 07.78 +04 11 14.3 18.5   644 – Palomar Mountain/NEAT MPS 38114
2001 10 08.38627 00 40 07.03 +04 11 12.9 18.5   644 – Palomar Mountain/NEAT MPS 38114
2001 10 08.39689 00 40 06.32 +04 11 12.0 18.4   644 – Palomar Mountain/NEAT MPS 38114
2001 10 11.36131 00 36 55.50 +04 06 09.6 18.8   644 – Palomar Mountain/NEAT MPS 38114
2001 10 11.38276 00 36 54.06 +04 06 07.5 19.1   644 – Palomar Mountain/NEAT MPS 38114
2001 10 11.40394 00 36 52.66 +04 06 05.3 19.2   644 – Palomar Mountain/NEAT MPS 38114
2001 10 13.19453 00 34 59.82 +04 03 12.7 19.7   704 – Lincoln Laboratory ETS, New Mexico MPS 38114
2001 10 13.21042 00 34 58.69 +04 03 11.2 20.0   704 – Lincoln Laboratory ETS, New Mexico MPS 38114
2001 10 13.21168 00 34 58.68 +04 03 10.9 19.1 R 699 – Lowell Observatory-LONEOS MPS 39348
2001 10 13.22629 00 34 57.70 +04 03 10.1 20.0   704 – Lincoln Laboratory ETS, New Mexico MPS 38114
2001 10 13.23510 00 34 57.14 +04 03 08.1   699 – Lowell Observatory-LONEOS MPS 39348
2001 10 13.24215 00 34 56.61 +04 03 07.8 19.5   704 – Lincoln Laboratory ETS, New Mexico MPS 38114
2001 10 13.25851 00 34 55.54 +04 03 06.9   699 – Lowell Observatory-LONEOS MPS 39348
2001 10 13.28194 00 34 53.98 +04 03 03.1   699 – Lowell Observatory-LONEOS MPS 39348
2001 10 14.22305 00 33 55.47 +04 01 38.6 19.2 V 691 – Steward Observatory, Kitt Peak-Spacewatch MPS 39348
2001 10 14.24396 00 33 54.11 +04 01 36.7 19.3 V 691 – Steward Observatory, Kitt Peak-Spacewatch MPS 39348
2001 10 14.26486 00 33 52.75 +04 01 35.0 19.2 V 691 – Steward Observatory, Kitt Peak-Spacewatch MPS 39348
2001 10 15.38690 00 32 43.57 +03 59 57.0 20.0   608 – Haleakala-AMOS MPS 45536
2001 10 15.39777 00 32 42.89 +03 59 55.9 20.2   608 – Haleakala-AMOS MPS 45536
2001 10 15.40860 00 32 42.17 +03 59 55.4 19.9   608 – Haleakala-AMOS MPS 45536
2001 10 16.24557 00 31 51.50 +03 58 43.9 19.5   704 – Lincoln Laboratory ETS, New Mexico MPS 38114
2001 10 16.26129 00 31 50.53 +03 58 41.9 19.7   704 – Lincoln Laboratory ETS, New Mexico MPS 38114
2001 10 16.27701 00 31 49.49 +03 58 38.9 19.7   704 – Lincoln Laboratory ETS, New Mexico MPS 38114
2001 10 16.29274 00 31 48.52 +03 58 39.8 19.8   704 – Lincoln Laboratory ETS, New Mexico MPS 38114
2001 10 16.30848 00 31 47.48 +03 58 37.8 19.7   704 – Lincoln Laboratory ETS, New Mexico MPS 38114
2001 10 21.17116 00 27 08.14 +03 53 07.2 19.4   704 – Lincoln Laboratory ETS, New Mexico MPS 40463
2001 10 21.18752 00 27 07.28 +03 53 06.6 19.1   704 – Lincoln Laboratory ETS, New Mexico MPS 40463
2001 10 21.20389 00 27 06.33 +03 53 05.6 19.5   704 – Lincoln Laboratory ETS, New Mexico MPS 40463
2001 10 21.22028 00 27 05.38 +03 53 04.1 19.9   704 – Lincoln Laboratory ETS, New Mexico MPS 40463
2001 10 21.23666 00 27 04.44 +03 53 04.7 19.9   704 – Lincoln Laboratory ETS, New Mexico MPS 40463
2003 04 09.29066 13 29 18.80 -11 03 28.3 20.2   644 – Palomar Mountain/NEAT MPS 104072
2003 04 09.36865 13 29 13.65 -11 03 11.9 20.0   644 – Palomar Mountain/NEAT MPS 104072
2003 04 09.43275 13 29 09.39 -11 02 57.8 20.0   644 – Palomar Mountain/NEAT MPS 104072
2005 12 06.494687 10 25 51.752 +17 56 59.58   645 – Apache Point-Sloan Digital Sky Survey MPS 390213
2005 12 06.498159 10 25 51.952 +17 56 58.94   645 – Apache Point-Sloan Digital Sky Survey MPS 390213
2006 01 12.42893 10 40 13.80 +17 47 46.5 18.8 R 644 – Palomar Mountain/NEAT MPS 159308
2006 01 12.43989 10 40 13.58 +17 47 48.6 18.9 R 644 – Palomar Mountain/NEAT MPS 159308
2006 01 12.45054 10 40 13.38 +17 47 50.3 19.1 R 644 – Palomar Mountain/NEAT MPS 159308
2006 02 22.22582 10 04 10.41 +20 18 00.7 19.9 V 703 – Catalina Sky Survey MPS 163989
2006 02 22.23874 10 04 09.51 +20 18 01.4 20.5 V 703 – Catalina Sky Survey MPS 163989
2006 02 22.24590 10 04 09.10 +20 18 03.6 19.6 R 699 – Lowell Observatory-LONEOS MPS 163989
2006 02 22.24700 10 04 09.01 +20 18 02.9 19.9 V 703 – Catalina Sky Survey MPS 163989
